Weather History for Nantucket, MA

Change the Weather History Date:

Tuesday, October 16, 2012

  Actual Average Record
Temperature  
Mean Temperature 56 °F -  
Max Temperature 64 °F 62 °F 75 °F (1975)
Min Temperature 50 °F 47 °F 34 °F (1961)
Degree Days  
Heating Degree Days 8    
Growing Degree Days 6 (Base 50)    
Moisture  
Dew Point 50 °F    
Average Humidity 77    
Maximum Humidity 100    
Minimum Humidity 51    
Precipitation  
Precipitation 0.10 in - - ()
Sea Level Pressure  
Sea Level Pressure 29.66 in    
Wind  
Wind Speed 10 mph (West)    
Max Wind Speed 18 mph    
Max Gust Speed 24 mph    
Visibility 10 miles    
Events Rain    
Averages and records for this station are not official NWS values.
T = Trace of Precipitation, MM = Missing Value Source: NWS Daily Summary

Daily Weather History Graph

Daily Weather History Graph

Search for Another Location

Airport:

Trip Planner

Search our weather history database for the weather conditions in past years. The results will help you decide how hot, cold, wet, or windy it might be!

Date:

Astronomy

Oct. 16, 2012 Rise Set
Actual Time 6:53 AM EDT 5:57 PM EDT
Civil Twilight 6:25 AM EDT 6:24 PM EDT
Nautical Twilight 5:53 AM EDT 6:56 PM EDT
Astronomical Twilight 5:21 AM EDT 7:28 PM EDT
Moon 8:13 AM EDT (10/16) 6:37 PM EDT (10/16)
Length of Visible Light 11h 59m
Length of Day
11h 03m
New Moon, 2% of the Moon is Illuminated
Oct 16
New Moon
Oct 21
First Quarter
Oct 29
Full
Nov 6
Last Quarter
Nov 13
New

Hourly Weather History & Observations

Time (EDT) Temp. Dew Point Humidity Pressure Visibility Wind Dir Wind Speed Gust Speed Precip Events Conditions
12:16 AM 62.6 °F 62.6 °F 100% 29.64 in 9.0 mi South 6.9 mph - N/A   Mostly Cloudy
12:53 AM 63.0 °F 62.1 °F 97% 29.63 in 9.0 mi SSW 10.4 mph - N/A   Overcast
1:13 AM 62.6 °F 62.6 °F 100% 29.62 in 10.0 mi SSW 9.2 mph - 0.00 in   Overcast
1:53 AM 63.0 °F 63.0 °F 100% 29.62 in 8.0 mi WSW 8.1 mph - 0.00 in Rain Light Rain
2:11 AM 62.6 °F 62.6 °F 100% 29.61 in 10.0 mi WSW 5.8 mph - 0.00 in   Overcast
2:53 AM 63.0 °F 62.1 °F 97% 29.60 in 10.0 mi WSW 10.4 mph - 0.00 in   Overcast
3:53 AM 61.0 °F 61.0 °F 100% 29.58 in 7.0 mi WSW 9.2 mph - 0.02 in Rain Light Rain
4:53 AM 61.0 °F 60.1 °F 97% 29.57 in 10.0 mi WSW 11.5 mph - 0.00 in   Overcast
5:02 AM 60.8 °F 60.8 °F 100% 29.57 in 8.0 mi WSW 12.7 mph - 0.00 in Rain Light Rain
5:28 AM 60.8 °F 59.0 °F 94% 29.56 in 10.0 mi West 11.5 mph - 0.01 in Rain Light Rain
5:53 AM 60.1 °F 60.1 °F 100% 29.55 in 6.0 mi WNW 8.1 mph - 0.05 in Rain Light Rain
6:53 AM 60.1 °F 59.0 °F 96% 29.55 in 10.0 mi WNW 9.2 mph - 0.03 in Rain Light Rain
7:02 AM 60.8 °F 59.0 °F 94% 29.56 in 10.0 mi WNW 10.4 mph - 0.00 in   Mostly Cloudy
8:48 AM 55.4 °F 48.2 °F 77% 29.63 in 10.0 mi NW 16.1 mph 23.0 mph N/A   Overcast
8:53 AM 55.0 °F 46.9 °F 74% 29.64 in 10.0 mi NW 15.0 mph - N/A   Overcast
9:53 AM 57.9 °F 46.9 °F 67% 29.62 in 10.0 mi NW 12.7 mph 21.9 mph N/A   Scattered Clouds
10:53 AM 57.9 °F 46.0 °F 65% 29.65 in 10.0 mi WNW 15.0 mph 24.2 mph N/A   Clear
11:53 AM 57.9 °F 44.1 °F 60% 29.65 in 10.0 mi WNW 13.8 mph 19.6 mph N/A   Clear
12:53 PM 57.9 °F 42.1 °F 56% 29.63 in 10.0 mi West 13.8 mph 20.7 mph N/A   Clear
1:53 PM 57.9 °F 41.0 °F 53% 29.64 in 10.0 mi West 13.8 mph 23.0 mph N/A   Clear
2:53 PM 57.0 °F 39.0 °F 51% 29.66 in 10.0 mi NW 18.4 mph 24.2 mph N/A   Clear
3:53 PM 57.0 °F 39.0 °F 51% 29.69 in 10.0 mi WNW 12.7 mph 24.2 mph N/A   Clear
4:53 PM 55.9 °F 39.0 °F 53% 29.71 in 10.0 mi NW 9.2 mph - N/A   Clear
5:53 PM 53.1 °F 37.9 °F 57% 29.75 in 10.0 mi WNW 4.6 mph - N/A   Clear
6:53 PM 50.0 °F 39.0 °F 66% 29.78 in 10.0 mi WNW 4.6 mph - N/A   Clear
7:53 PM 51.1 °F 37.9 °F 61% 29.80 in 10.0 mi WNW 9.2 mph - N/A   Clear
8:53 PM 52.0 °F 37.9 °F 59% 29.82 in 10.0 mi NW 8.1 mph - N/A   Clear
9:53 PM 52.0 °F 37.0 °F 57% 29.83 in 10.0 mi NW 12.7 mph - N/A   Clear
10:53 PM 52.0 °F 37.0 °F 57% 29.84 in 10.0 mi NW 12.7 mph - N/A   Clear
11:53 PM 52.0 °F 37.0 °F 57% 29.84 in 10.0 mi NW 10.4 mph - N/A   Clear